Home > Weather > Simi Valley > Past weeks

Flag for USA Past Weather in Simi Valley, California, USA — Yesterday and Last 2 Weeks

Now
83 °F

Sunny.


Feels Like: 83 °F
Forecast: 59 / 93 °F
Wind: 3 mph from North

Location: Van Nuys Airport

Current Time: Jun 26, 2016 at 10:20:26 AM

Latest Report: Jun 26, 2016 at 9:51 AM


Visibility: 10 mi

Pressure: 29.86 "Hg

Humidity: 46%

Dew Point: 60 °F

Location of Simi ValleyLocation

Past Weather in Simi Valley — Graph

°F

Simi Valley Temperature Yesterday

Maximum temperature yesterday: 92 °F (at 3:51 PM)
Minimum temperature yesterday: 63 °F (at 2:51 AM)
Average temperature yesterday: 75 °F

High & Low Weather Summary for the Past Weeks

 TemperatureHumidityPressure
High113 °F (Jun 20, 2:54 PM)100% (Jun 24, 6:51 AM)30.10 "Hg (Jun 24, 6:51 AM)
Low56 °F (Jun 16, 5:51 AM)1% (Jun 19, 12:51 PM)29.78 "Hg (Jun 25, 3:51 PM)
Average74 °F54%29.93 "Hg
* Reported Jun 11 8:51 AM — Jun 26 8:51 AM, Simi Valley, Weather by CustomWeather, © 2016

Note: Actual official high and low records may vary slightly from our data, if they occured in-between our weather recording intervals... More about our weather records

Advertising

Simi Valley Weather History for the Previous 24 Hours

Scroll right to see more
 ConditionsComfort  
Time TempWeatherWind HumidityBarometerVisibility
8:51 AM
Sun, Jun 26
75 °FSunny.3 mph64%29.86 "Hg8 mi
7:51 AM70 °FSunny.No wind76%29.87 "Hg6 mi
6:51 AM67 °FSunny.No wind81%29.86 "Hg8 mi
5:51 AM65 °FClear.No wind85%29.84 "Hg8 mi
4:51 AM66 °FClear.No wind87%29.83 "Hg8 mi
3:51 AM66 °FClear.No wind84%29.84 "Hg8 mi
2:51 AM67 °FClear.No wind85%29.84 "Hg8 mi
1:51 AM67 °FClear.No wind85%29.84 "Hg8 mi
12:51 AM67 °FClear.5 mph85%29.85 "Hg9 mi
11:51 PM
Sat, Jun 25
69 °FClear.6 mph76%29.85 "Hg10 mi
10:51 PM71 °FClear.6 mph71%29.84 "Hg10 mi
9:51 PM72 °FClear.8 mph66%29.83 "Hg10 mi
8:51 PM74 °FSunny.7 mph60%29.81 "Hg10 mi
7:51 PM77 °FSunny.8 mph54%29.80 "Hg10 mi
6:51 PM83 °FSunny.10 mph41%29.79 "Hg10 mi
5:51 PM85 °FSunny.10 mph39%29.78 "Hg10 mi
4:51 PM87 °FSunny.13 mph39%29.78 "Hg10 mi
3:51 PM92 °FSunny.8 mph33%29.78 "Hg10 mi
2:51 PM91 °FSunny.6 mph33%29.79 "Hg10 mi
1:51 PM90 °FSunny.5 mph34%29.81 "Hg10 mi
12:51 PM87 °FSunny.8 mph40%29.82 "Hg10 mi
11:51 AM84 °FSunny.8 mph45%29.83 "Hg10 mi
10:51 AM79 °FSunny.7 mph52%29.84 "Hg9 mi
Weather by CustomWeather, © 2016

See weather overviewHow to use our weather pages